Location: downtown San Diego
(32.7310°N, 117.1990°W)
Time: 08:32:47
(UTC-08:00)

CENTAUR R/B - Pass Details

Date: 19 May 2017
Orbit: 822 x 1366 km, 63.5° (Epoch: 19 November)

Event Time Altitude Azimuth Distance (km) Brightness Sun altitude
Rises 22:01:00 0° 333° (NNW) 4,169 7.0 -24.2°
Reaches altitude 10° 22:03:45 10° 337° (NNW) 3,262 6.2 -24.6°
Maximum altitude 22:11:44 62° 57° (ENE) 1,494 3.3 -25.7°
Enters shadow 22:14:17 45° 113° (ESE) 1,776 3.4 -26.1°
